Location: Newark
(34.9756°N, 138.3828°E)
Time: 02:06:59
(UTC+00:00)

N. Korean satellite - Pass Details

Date: 19 December 2019
Orbit: 454 x 507 km, 97.2° (Epoch: 23 January)

Event Time Altitude Azimuth Distance (km) Brightness Sun altitude
Rises 08:34:04 0° 195° (SSW) 2,591 10.8 -11.4°
Reaches altitude 10° 08:36:27 10° 210° (SSW) 1,706 10.1 -11.8°
Maximum altitude 08:39:26 23° 264° (W) 1,096 9.3 -12.4°
Drops below altitude 10° 08:42:24 10° 318° (NW) 1,699 9.6 -13.0°
Sets 08:44:47 0° 333° (NNW) 2,577 10.3 -13.4°
